伽利略0203星导航星座 (GSAT0203 (GALILEO 7))

导读 | 星芒AI

GSAT0203,也称为GALILEO 7,是欧洲伽利略卫星导航系统的一部分。该卫星由空客防务与航天公司制造,于2023年发射,旨在增强全球定位服务的精度和可靠性。作为伽利略系统的运行卫星之一,GALILEO 7 提供高精度的定位、导航和授时服务,服务于民用和专业应用。该系统独立于美国的GPS和俄罗斯的GLONASS,增强了全球导航的多样性和安全性。

基本信息
目录编号:
40544
目录名称:
GALILEO 7 (263)
国际标识:
2015-017A
轨道中心:
EARTH
卫星名称:
伽利略0203星
卫星全名:
伽利略0203星导航星座 (GSAT0203 (GALILEO 7))
卫星状态:
在轨 (已飞行3858 天)
发射日期:
2015-03-27 UTC
国别 :
(ESA)
星等 :
--
轨道信息
数据来源 国际轨道数据
星历时间: 2025-10-15T22:34:31+0800
2天前
查看轨道信息
半长轴: 29600.077km
偏心率: 0.0005736
轨道倾角: 56.860°
近地点辐角 255.045°
升交点赤经 348.267°
平近点角 104.947°
近地点: 23204.963km
远地点: 23238.921km
周期: 844.693分钟
每日圈数: 1.704761
详细信息
平衡模式:
三轴稳定
覆盖范围:
全球
运营商:
欧盟空间计划局
运营商所在国:
法国大都会
使用方式:
暂无
卫星简介
伽利略定位系统(Galileo)是一个全球导航卫星系统,于2016年投入使用由欧盟通过ESA创建,由欧盟空间计划局(EUSPA)运营。该系统有两个地面操控站,并且在高纬度地区提供比其他系统更好的定位服务。该卫星仍在工作。
2D轨道图
3D轨道图
轨道高度分析图
轨道倾角分析图
轨道综合分析图
查看轨道综合分析图